FENGYUN 1C DEB, 38818

Orbit data source: Space-Track

FENGYUN 1C DEB, 38818 is space debris in SSO originally from a launch on Mon, 10 May 1999 UTC launched from the Taiyaun Space Center, China (TSC). Fengyun 1C debris stems from the Chinese weather satellite Fengyun-1C, which was intentionally destroyed by a Chinese anti-satellite missile in 2007. This event dramatically increased the amount of space debris, with thousands of trackable fragments posing hazards to satellites and human spaceflight. The Fengyun 1C debris cloud has become a focal point in discussions about space sustainability and the need for international regulations to prevent the creation of new debris.

Loading next visibility...
Identifier
38818, 1999-025EVJ
Orbit
SSO
Country
Flag of CNCN / PRC
Related business
Manufacturer
Unknown
Mission
Spacecraft
Bus & Motor
Unknown
Mass
Unknown
Launch date (UTC)
1999-05-10 (27 years ago)
Launch vehicle
Unknown
Launch site
Taiyaun Space Center, China (TSC)
Object type
Payload
Rocket body
Debris
Shape & HBR
Unknown shape, 0.1 m
Radar Cross Section
Small (<0.1 m²)

Expand to show TLE details & history
Last TLE update: 22 hours ago

TLE from 22 hours ago
0 FENGYUN 1C DEB
1 38818U 99025EVJ 25351.92422025  .00001005  00000-0  32125-3 0  9997
2 38818  98.2993  48.0535 0088435  84.0679  93.7681 14.39500377673220
Epoch: 2025-12-17T22:10Z
TLE epoch observation values (Epoch: 2025-12-17T22:10:52.629Z)
Latitude
1.03035°
Longitude
168.69662°
Altitude
767.681 km
Speed
7.468 km/s
True Right ascension
15h 12m 48s
True Declination
1° 01' 27"
Sunlit
Object was in daylight at epoch
Visualization orbit readout
Latitude
Unknown
Longitude
Unknown
Altitude
Unknown
Speed
Unknown
Apparent Right ascension
Unknown
Apparent Declination
Unknown
Sunlit
N/A
Visualization observer readout
Local Sidereal Time
19:21:13
Azimuth
Unknown
Elevation
Unknown
Doppler factor
Unknown
Orbital elements
Apogee altitude
820.364 km
Perigee altitude
694.161 km
Semi-major axis
7,135.4 km
Eccentricity
0.00884
Inclination
98.2993°
RAAN
48.0535°
Arg. of periapsis
84.0679°
True anomaly
94.77851°
Mean anomaly
93.7681°
Eccentric anomaly
94.27339°
Mean motion
3.60094 °/min
Orbital period
99.97 mins
BSTAR
0.00032125
Loading maneuver chart data...
Computing Atmospheric mass density...

Documentation

Showing up to 5 results
|